This demonstration page uses our WeatherBlox Daily Observations layout. Learn more.

Left ArrowRight Arrow

36.17497, -115.13722

Hourly Observations for September 25, 2015

Temp ( °F °C ) Dew Point ( °F °C ) Humidity (%) Winds ( mph kmh ) Pressure ( in mb ) Visibility ( mi km ) Precip ( " mm )
12:53 am 00:53 Clear 82 27.8 40 4.4 22 22 N N/A 29.89 1012 10 16 N/A
1:53 am 01:53 Clear 81 27.2 42 5.6 25 25 W 6 9 29.90 1012 10 16 N/A
2:53 am 02:53 Clear 78 25.6 41 5 27 27 WNW 5 7 29.89 1012 10 16 N/A
3:53 am 03:53 Clear 78 25.6 42 5.6 28 28 N N/A 29.90 1013 10 16 N/A
4:53 am 04:53 Clear 77 25 41 5 28 28 W 5 7 29.90 1013 10 16 N/A
5:53 am 05:53 Clear 76 24.4 43 6.1 31 31 W 5 7 29.92 1013 10 16 N/A
6:53 am 06:53 Sunny 73 22.8 42 5.6 33 33 NNW 5 7 29.95 1014 10 16 N/A
7:53 am 07:53 Sunny 77 25 40 4.4 26 26 NNW 3 6 29.96 1015 10 16 N/A
8:53 am 08:53 Sunny 85 29.4 41 5 21 21 N N/A 29.97 1015 10 16 N/A
9:53 am 09:53 Sunny 88 31.1 38 3.3 17 17 S 5 7 29.99 1016 10 16 N/A
10:53 am 10:53 Mostly Sunny 92 33.3 38 3.3 15 15 SE 7 11 29.98 1015 10 16 N/A
11:53 am 11:53 Sunny 95 35 39 3.9 14 14 VRB 5 7 29.96 1014 10 16 N/A
12:53 pm 12:53 Sunny 97 36.1 44 6.7 16 16 SSE 6 9 29.93 1014 10 16 N/A
1:53 pm 13:53 Mostly Sunny 100 37.8 44 6.7 15 15 ESE 6 9 29.90 1013 10 16 N/A
2:53 pm 14:53 Sunny 100 37.8 45 7.2 15 15 SSW 10 17 29.88 1012 10 16 N/A
3:53 pm 15:53 Mostly Sunny 100 37.8 45 7.2 15 15 VRB 3 6 29.85 1011 10 16 N/A
4:53 pm 16:53 Sunny 100 37.8 45 7.2 15 15 SSE 15 24 29.84 1010 10 16 N/A
5:53 pm 17:53 Sunny 99 37.2 44 6.7 15 15 S 15 24 29.84 1011 10 16 N/A
6:53 pm 18:53 Clear 97 36.1 45 7.2 17 17 S 7 11 29.85 1011 10 16 N/A
7:53 pm 19:53 Clear 94 34.4 46 7.8 19 19 SSW 5 7 29.86 1011 10 16 N/A
8:53 pm 20:53 Clear 92 33.3 46 7.8 21 21 WSW 3 6 29.86 1011 10 16 N/A
9:53 pm 21:53 Clear 89 31.7 45 7.2 22 22 WNW 3 6 29.86 1011 10 16 N/A
10:53 pm 22:53 Clear 88 31 45 7 22 22 W 3 6 29.77 1008 10 16 N/A
11:53 pm 23:53 Clear 85 29.4 44 6.7 24 24 N N/A 29.86 1011 10 16 N/A

Powered by AerisWeather